カタログに戻る

SL-16 DEB

運用中LEO
NORAD 22340·DEBRIS·🇷🇺 Russia

打ち上げ Dec 25, 1992 から Baikonur Cosmodrome

Loading…

次のパス (今後24時間)

TLE

最新Source: Space-Track

元期: Sep 14, 2026, 12:54 UTC

1 22340U 92093AD  26257.53800037  .00000011  00000-0  41430-4 0  9990
2 22340  70.8749 296.1260 0103010 237.8648 194.6727 13.94560292715074

AllMySatでSL-16 DEBをリアルタイム追跡

Download on the App Store